This is the latest recevied weather packets stored in our database for station/object KC4GS-13. If no packets are shown the sender has not sent any weather packets the latest 10 day(s).
| Time | Temp. | Humidity | Pressure | Rain* | Wind** | Luminosity | Snow |
|---|---|---|---|---|---|---|---|
| 1777904229 | 18.89° C | 50% | 1019.4 hPa | 0 mm | - | 186 W/m² | - |
| 1777903926 | 18.89° C | 53% | 1019.5 hPa | 0 mm | - | 76 W/m² | - |
| 1777903623 | 18.89° C | 53% | 1019.4 hPa | 0 mm | - | 108 W/m² | - |
| 1777903318 | 18.89° C | 56% | 1019.6 hPa | 0 mm | - | 209 W/m² | - |
| 1777903016 | 18.89° C | 53% | 1019.6 hPa | 0 mm | - | 326 W/m² | - |
| 1777902711 | 18.89° C | 59% | 1019.6 hPa | 0 mm | - | 132 W/m² | - |
| 1777902409 | 18.33° C | 59% | 1019.8 hPa | 0 mm | - | 63 W/m² | - |
| 1777902105 | 17.78° C | 61% | 1019.7 hPa | 0 mm | - | 135 W/m² | - |
| 1777901804 | 17.22° C | 60% | 1019.8 hPa | 0 mm | - | 237 W/m² | - |
| 1777901501 | 16.67° C | 64% | 1019.6 hPa | 0 mm | - | 95 W/m² | - |
| 1777901198 | 16.67° C | 70% | 1019.6 hPa | 0 mm | - | 64 W/m² | - |
| 1777900896 | 15.56° C | 73% | 1019.8 hPa | 0 mm | - | 119 W/m² | - |
| 1777900593 | 14.44° C | 83% | 1019.9 hPa | 0 mm | - | 85 W/m² | - |
| 1777900290 | 13.89° C | 88% | 1019.7 hPa | 0 mm | - | 136 W/m² | - |
| 1777899986 | 13.33° C | 91% | 1019.8 hPa | 0 mm | - | 69 W/m² | - |
| 1777899683 | 12.78° C | 92% | 1019.8 hPa | 0 mm | - | 42 W/m² | - |
| 1777899381 | 12.22° C | 93% | 1019.5 hPa | 0 mm | - | 39 W/m² | - |
| 1777899079 | 12.22° C | 94% | 1019.7 hPa | 0 mm | - | 38 W/m² | - |
| 1777898775 | 11.67° C | 94% | 1019.7 hPa | 0 mm | - | 38 W/m² | - |
| 1777898473 | 11.11° C | 94% | 1019.5 hPa | 0 mm | - | 36 W/m² | - |
| 1777898171 | 10.56° C | 94% | 1019.6 hPa | 0 mm | - | 42 W/m² | - |
| 1777897868 | 10° C | 95% | 1019.6 hPa | 0 mm | - | 35 W/m² | - |
| 1777897564 | 10° C | 95% | 1019.6 hPa | 0 mm | - | 36 W/m² | - |
| 1777897259 | 9.44° C | 95% | 1019.6 hPa | 0 mm | - | 32 W/m² | - |
| 1777896955 | 8.89° C | 95% | 1019.6 hPa | 0 mm | - | 32 W/m² | - |
* Rain latest hour (hover to see other rain measurements)
** Current wind speed in m/s (hover to see current wind gust speed)